Location: Newark
(35.2672°N, 80.7344°W)
Time: 06:42:30
(UTC+00:00)

A-11 Canister half - Pass Details

Date: 27 January 2020
Orbit: 1524 x 1684 km, 47.3° (Epoch: 27 February)

Event Time Altitude Azimuth Distance (km) Brightness Sun altitude
Rises 01:56:27 0° 291° (WNW) 4,705 12.4 -39.1°
Reaches altitude 10° 01:59:46 10° 299° (WNW) 3,738 11.6 -39.8°
Enters shadow 02:07:12 40° 348° (NNW) 2,202 9.8 -41.3°
